NKS2703 KFLL-KPNS

Flight info

Callsign NKS2703
Flight time N/A
Altitude 34000
Route HROCK2 SMELZ Q116 JAWJA CEW PENSI
Aircraft A321/M-SDE3FGHIRWY/LB1

Departure

Time 2026-05-07 22:48
Airport Fort Lauderdale Hollywood International Airport (KFLL)

Arrival

Time N/A
Airport Pensacola International Airport (KPNS)
Time Latitude Longitude Altitude Speed Heading
2026-05-07 22:22 26.07044 -80.14671 17 ft 0 kts 17°
2026-05-07 22:37 26.07032 -80.14675 18 ft 3 kts 15°
2026-05-07 22:38 26.07013 -80.14680 17 ft 3 kts 14°
2026-05-07 22:38 26.06999 -80.14684 17 ft 3 kts 321°
2026-05-07 22:38 26.06994 -80.14675 16 ft 1 kts 271°
2026-05-07 22:38 26.06994 -80.14659 17 ft 3 kts 271°
2026-05-07 22:39 26.06994 -80.14645 16 ft 0 kts 271°
2026-05-07 22:41 26.06994 -80.14648 16 ft 2 kts 270°
2026-05-07 22:42 26.06974 -80.14694 16 ft 10 kts 220°
2026-05-07 22:42 26.06914 -80.14682 16 ft 10 kts 143°
2026-05-07 22:42 26.06863 -80.14636 17 ft 2 kts 136°
2026-05-07 22:42 26.06861 -80.14635 16 ft 0 kts 136°
2026-05-07 22:43 26.06860 -80.14633 16 ft 2 kts 136°
2026-05-07 22:43 26.06819 -80.14594 16 ft 10 kts 150°
2026-05-07 22:44 26.06765 -80.14628 15 ft 11 kts 261°
2026-05-07 22:44 26.06766 -80.14728 15 ft 18 kts 270°
2026-05-07 22:44 26.06766 -80.14887 16 ft 22 kts 270°
2026-05-07 22:44 26.06767 -80.15065 16 ft 23 kts 270°
2026-05-07 22:45 26.06768 -80.15226 16 ft 20 kts 270°
2026-05-07 22:45 26.06769 -80.15339 16 ft 14 kts 270°
2026-05-07 22:45 26.06769 -80.15455 16 ft 14 kts 270°
2026-05-07 22:45 26.06730 -80.15533 16 ft 13 kts 202°
2026-05-07 22:46 26.06698 -80.15587 16 ft 14 kts 268°
2026-05-07 22:46 26.06698 -80.15707 16 ft 15 kts 270°
2026-05-07 22:46 26.06695 -80.15789 16 ft 11 kts 255°
2026-05-07 22:46 26.06680 -80.15811 18 ft 0 kts 221°
2026-05-07 22:47 26.06665 -80.15820 16 ft 4 kts 204°
2026-05-07 22:47 26.06610 -80.15814 18 ft 11 kts 150°
2026-05-07 22:48 26.06589 -80.15662 22 ft 49 kts 91°
2026-05-07 22:48 26.06584 -80.14946 19 ft 133 kts 90°
2026-05-07 22:48 26.06571 -80.13695 305 ft 176 kts 91°
2026-05-07 22:48 26.06594 -80.12298 1151 ft 183 kts 89°
2026-05-07 22:49 26.06733 -80.10879 1967 ft 182 kts 74°
2026-05-07 22:49 26.07229 -80.09597 2534 ft 183 kts 54°
2026-05-07 22:49 26.07969 -80.08421 2885 ft 194 kts 52°
2026-05-07 22:49 26.08883 -80.07269 3179 ft 205 kts 34°
2026-05-07 22:50 26.10191 -80.06582 3516 ft 212 kts 17°
2026-05-07 22:50 26.11630 -80.06020 3808 ft 230 kts 16°
2026-05-07 22:50 26.13235 -80.05399 4005 ft 259 kts 16°
2026-05-07 22:50 26.15005 -80.04751 4499 ft 272 kts
2026-05-07 22:51 26.16864 -80.04949 5185 ft 272 kts 339°
2026-05-07 22:51 26.18648 -80.05664 5944 ft 274 kts 338°
2026-05-07 22:51 26.20431 -80.06396 6627 ft 279 kts 337°
2026-05-07 22:51 26.22031 -80.07588 7285 ft 280 kts 312°
2026-05-07 22:52 26.23128 -80.09371 8018 ft 281 kts 295°
2026-05-07 22:52 26.23891 -80.11387 8711 ft 284 kts 292°
2026-05-07 22:52 26.24646 -80.13430 9407 ft 287 kts 292°
2026-05-07 22:52 26.25413 -80.15503 10027 ft 291 kts 291°
2026-05-07 22:53 26.26065 -80.17684 10365 ft 306 kts 285°
2026-05-07 22:53 26.26682 -80.20031 10598 ft 323 kts 285°
2026-05-07 22:53 26.27300 -80.22491 10774 ft 341 kts 285°
2026-05-07 22:53 26.27941 -80.25062 11194 ft 349 kts 285°
2026-05-07 22:54 26.28602 -80.27671 11770 ft 352 kts 285°
2026-05-07 22:54 26.29283 -80.30304 12443 ft 352 kts 285°
2026-05-07 22:54 26.29975 -80.32937 13100 ft 353 kts 286°
2026-05-07 22:54 26.30674 -80.35578 13677 ft 357 kts 286°
2026-05-07 22:55 26.31384 -80.38246 14190 ft 360 kts 286°
2026-05-07 22:55 26.32101 -80.40930 14762 ft 362 kts 286°
2026-05-07 22:55 26.32819 -80.43630 15333 ft 364 kts 286°
2026-05-07 22:55 26.33531 -80.46314 15875 ft 366 kts 286°
2026-05-07 22:56 26.34245 -80.49024 16453 ft 368 kts 286°
2026-05-07 22:56 26.34971 -80.51773 17036 ft 370 kts 286°
2026-05-07 22:56 26.35698 -80.54529 17605 ft 372 kts 286°
2026-05-07 22:56 26.36432 -80.57306 18203 ft 374 kts 286°
2026-05-07 22:57 26.37168 -80.60100 18732 ft 375 kts 286°
2026-05-07 22:57 26.37902 -80.62896 19229 ft 377 kts 286°
2026-05-07 22:57 26.38638 -80.65705 19743 ft 378 kts 286°
2026-05-07 22:57 26.39380 -80.68536 20259 ft 380 kts 286°
2026-05-07 22:58 26.40352 -80.71288 20768 ft 383 kts 296°
2026-05-07 22:58 26.41802 -80.73785 21262 ft 386 kts 307°
2026-05-07 22:58 26.43615 -80.76020 21754 ft 389 kts 311°
2026-05-07 22:58 26.45437 -80.78205 22228 ft 391 kts 310°
2026-05-07 22:59 26.47289 -80.80442 22688 ft 393 kts 310°
2026-05-07 22:59 26.49142 -80.82689 23137 ft 395 kts 310°
2026-05-07 22:59 26.51005 -80.84949 23570 ft 397 kts 310°
2026-05-07 22:59 26.52879 -80.87221 23917 ft 399 kts 310°
2026-05-07 23:00 26.54764 -80.89505 24277 ft 400 kts 310°
2026-05-07 23:00 26.56658 -80.91799 24645 ft 402 kts 310°
2026-05-07 23:00 26.58557 -80.94101 25007 ft 403 kts 309°
2026-05-07 23:00 26.60460 -80.96412 25402 ft 404 kts 309°
2026-05-07 23:01 26.62370 -80.98732 25760 ft 406 kts 309°
2026-05-07 23:01 26.64283 -81.01055 26103 ft 408 kts 309°
2026-05-07 23:01 26.66206 -81.03395 26442 ft 410 kts 309°
2026-05-07 23:01 26.68120 -81.05723 26777 ft 412 kts 309°
2026-05-07 23:02 26.70060 -81.08081 27114 ft 413 kts 309°
2026-05-07 23:02 26.72017 -81.10458 27457 ft 415 kts 310°
2026-05-07 23:02 26.73978 -81.12841 27778 ft 417 kts 310°
2026-05-07 23:02 26.75952 -81.15243 28114 ft 419 kts 309°
2026-05-07 23:03 26.77934 -81.17656 28437 ft 421 kts 310°
2026-05-07 23:03 26.79903 -81.20054 28745 ft 423 kts 309°
2026-05-07 23:03 26.81902 -81.22492 29051 ft 425 kts 309°
2026-05-07 23:03 26.83909 -81.24945 29355 ft 427 kts 309°
2026-05-07 23:04 26.85925 -81.27411 29662 ft 429 kts 309°
2026-05-07 23:04 26.87942 -81.29877 29969 ft 431 kts 309°
2026-05-07 23:04 26.89975 -81.32363 30257 ft 433 kts 309°
2026-05-07 23:04 26.92015 -81.34861 30545 ft 435 kts 309°
2026-05-07 23:05 26.94035 -81.37332 30829 ft 435 kts 309°
2026-05-07 23:05 26.96077 -81.39832 31208 ft 434 kts 309°
2026-05-07 23:05 26.98116 -81.42327 31595 ft 432 kts 309°
2026-05-07 23:05 27.00137 -81.44803 31962 ft 431 kts 309°
2026-05-07 23:06 27.02158 -81.47284 32347 ft 430 kts 309°
2026-05-07 23:06 27.04201 -81.49747 32710 ft 430 kts 313°
2026-05-07 23:06 27.06520 -81.51908 33079 ft 434 kts 322°
2026-05-07 23:06 27.09061 -81.53758 33435 ft 434 kts 323°